Location: Bijele Vode
(45.2833°N, 16.2000°E)
Time: 15:59:45
(UTC+00:00)

NOSS 2-2 (D) - Pass Details

Date: 18 September 2020
Orbit: 462 x 1746 km, 63.3° (Epoch: 14 October)

Event Time Altitude Azimuth Distance (km) Brightness Sun altitude
Rises 17:30:57 0° 187° (S) 2,507 6.7 -6.3°
Reaches altitude 10° 17:33:18 10° 172° (S) 1,606 5.5 -6.7°
Maximum altitude 17:36:08 24° 117° (ESE) 1,015 4.1 -7.2°
Drops below altitude 10° 17:39:07 10° 62° (ENE) 1,701 5.4 -7.7°
Sets 17:41:40 0° 48° (NE) 2,698 6.5 -8.1°
